Regional Weather Roundup
Issued by NWS Kansas City/Pleasant Hill, MO

Home | Current Version | Previous Version | Graphics & Text | Print | Product List | Glossary Off
Versions: 1 2 3 4 5 6 7 8 9 10 11 12 13 14 15 16 17 18 19 20 21 22 23 24 25 26 27 28 29 30 31 32 33 34 35 36 37 38 39 40 41 42 43 44 45 46 47 48 49 50

000
ASUS43 KEAX 051010
RWREAX

WEATHER ROUNDUP FOR EASTERN KANSAS AND NORTHWEST MISSOURI
NATIONAL WEATHER SERVICE KANSAS CITY/PLEASANT HILL MO
400 AM CST MON DEC 05 2016

KSZ040-057-103>105-MOZ028-029-037-043-051100-
...KANSAS CITY METROPOLITAN AREA...

CITY           SKY/WX    TMP DP  RH WIND       PRES   REMARKS
K.C. INTL      CLEAR     31  28  89 S10       29.92F WCI  22
K.C. DOWNTOWN  CLEAR     34  33  96 S9        29.95S WCI  27
LEES SUMMIT    CLEAR     35  33  92 S12       29.95F WCI  27
OLATHE - IXD   CLEAR     32  31  96 S10       29.94F WCI  24
OLATHE - OJC   CLEAR     30  29  96 S9        29.94F WCI  22
LAWRENCE       CLEAR     26  26 100 E5        29.94F FOG     WCI  20

$$

MOZ001>008-011>017-020>025-030>033-038>040-044>046-053-054-051100-
...NORTHERN AND CENTRAL MISSOURI...

CITY           SKY/WX    TMP DP  RH WIND       PRES   REMARKS
ST. JOSEPH     FOG       26  25  96 CALM      29.91F VSB 1/2
MOSBY          FOG       27  27 100 CALM      29.95F VSB 3/4
WARRENSBURG    CLEAR     32  32 100 S7        29.98F WCI  26
WHITEMAN AFB   PTCLDY    28  28 100 S6        29.98F FOG     WCI  22
CLINTON        CLOUDY    32  32 100 S3        30.01F
SEDALIA        CLOUDY    33  31  92 S8        30.01S WCI  26
WARSAW         NOT AVBL
CHILLICOTHE      N/A     27  25  92 CALM      29.96F
KIRKSVILLE     FOG       28  27  96 S3        29.96F VSB 1/4

$$

MOZ041-047>049-056>058-063>065-088>090-097-051100-
...EASTERN AND SOUTHERN MISSOURI...

CITY           SKY/WX    TMP DP  RH WIND       PRES   REMARKS
ST. LOUIS INTL CLOUDY    37  32  82 S5        30.05F WCI  33
SPIRIT OF STL  FOG       27  27 100 CALM      30.05F VSB 1/2
COLUMBIA       FOG       28  28 100 S7        30.00F VSB 1/4 WCI  21
JEFFERSON CITY MOCLDY    27  26  96 CALM      30.03S FOG
ROLLA          CLOUDY    29  29 100 S7        30.00F FOG     WCI  22
OSAGE BEACH    CLOUDY    29  28  96 CALM      30.02F
SPRINGFIELD    FOG       31  30  96 S8        30.00F VSB 1/2 WCI  23
BRANSON        FOG       32  32 100 CALM      30.02F VSB 1/2
JOPLIN         CLOUDY    34  34 100 S8        30.00F WCI  27
WEST PLAINS    CLOUDY    31  30  96 CALM      30.05S FOG

$$

IAZ060-094-KSZ022-034>040-054-083-096-NEZ052-066-093-051100-
...KANSAS...SOUTHEAST NEBRASKA AND IOWA...

CITY           SKY/WX    TMP DP  RH WIND       PRES   REMARKS
TOPEKA         CLEAR     30  27  88 SE3       29.92S FOG
MANHATTAN      CLEAR     27  24  89 SW3       29.89F
EMPORIA        CLEAR     33  32  96 S14       29.93F WCI  23
CHANUTE        CLOUDY    34  33  96 S6        29.98F WCI  29
WICHITA        CLEAR     33  31  92 S12       29.92F WCI  24
OMAHA          CLOUDY    32  28  85 SE8       29.83F WCI  25
LINCOLN        PTCLDY    34  30  85 S8        29.81F WCI  27
FALLS CITY     CLEAR     35  31  85 S7        29.87F WCI  29
LAMONI         FOG       30  30 100 S7        29.91F VSB 1/4 WCI  23
DES MOINES     CLOUDY    32  30  92 S8        29.89F FOG     WCI  25

$$




USA.gov is the U.S. government's official web portal to all federal, state and local government web resources and services.